GLO2105 SBPA-SBFL

Flight info

Callsign GLO2105
Flight time 0h 39m
Altitude 27000
Route ANLER UM540 DADMO
Aircraft B738/M-SDFGIKLORWXY/LB1

Departure

Time 2026-05-04 07:09
Airport Porto Alegre-Salgado Filho International Airport (SBPA)

Arrival

Time 2026-05-04 07:49
Airport Hercílio Luz International Airport (SBFL)
Time Latitude Longitude Altitude Speed Heading
2026-05-04 06:59 -29.99066 -51.17871 18 ft 0 kts 89°
2026-05-04 07:04 -29.99066 -51.17880 45 ft 4 kts 92°
2026-05-04 07:04 -29.99063 -51.17910 18 ft 4 kts 110°
2026-05-04 07:04 -29.99050 -51.17935 20 ft 4 kts 149°
2026-05-04 07:05 -29.99032 -51.17939 20 ft 1 kts 207°
2026-05-04 07:05 -29.99032 -51.17938 21 ft 0 kts 207°
2026-05-04 07:07 -29.99033 -51.17939 20 ft 1 kts 207°
2026-05-04 07:08 -29.99434 -51.18244 20 ft 10 kts 130°
2026-05-04 07:09 -29.99443 -51.18104 20 ft 39 kts 91°
2026-05-04 07:09 -29.99455 -51.17479 18 ft 115 kts 91°
2026-05-04 07:09 -29.99478 -51.16310 56 ft 171 kts 92°
2026-05-04 07:09 -29.99505 -51.14932 770 ft 176 kts 91°
2026-05-04 07:10 -29.99533 -51.13459 1454 ft 194 kts 90°
2026-05-04 07:10 -29.99563 -51.11771 1737 ft 225 kts 89°
2026-05-04 07:12 -29.95348 -50.98909 6787 ft 280 kts 34°
2026-05-04 07:12 -29.93818 -50.97517 7528 ft 286 kts 34°
2026-05-04 07:12 -29.92220 -50.96061 8281 ft 292 kts 34°
2026-05-04 07:12 -29.90635 -50.94610 9039 ft 297 kts 34°
2026-05-04 07:13 -29.88999 -50.93105 9787 ft 303 kts 34°
2026-05-04 07:13 -29.87331 -50.91568 10428 ft 313 kts 34°
2026-05-04 07:13 -29.85563 -50.89939 10630 ft 338 kts 35°
2026-05-04 07:14 -29.77414 -50.82394 12103 ft 395 kts 36°
2026-05-04 07:14 -29.75300 -50.80430 12794 ft 397 kts 36°
2026-05-04 07:15 -29.73135 -50.78422 13467 ft 401 kts 36°
2026-05-04 07:15 -29.70953 -50.76401 14091 ft 406 kts 36°
2026-05-04 07:15 -29.68738 -50.74352 14677 ft 410 kts 36°
2026-05-04 07:15 -29.66500 -50.72284 15262 ft 414 kts 36°
2026-05-04 07:16 -29.64237 -50.70193 15849 ft 419 kts 36°
2026-05-04 07:16 -29.61947 -50.68079 16440 ft 423 kts 36°
2026-05-04 07:16 -29.59638 -50.65950 17003 ft 428 kts 36°
2026-05-04 07:16 -29.57336 -50.63827 17558 ft 432 kts 36°
2026-05-04 07:17 -29.54966 -50.61642 18104 ft 437 kts 36°
2026-05-04 07:17 -29.52585 -50.59448 18624 ft 441 kts 36°
2026-05-04 07:17 -29.50179 -50.57234 19098 ft 444 kts 36°
2026-05-04 07:17 -29.47759 -50.55007 19585 ft 448 kts 37°
2026-05-04 07:18 -29.45362 -50.52705 20087 ft 451 kts 38°
2026-05-04 07:18 -29.42983 -50.50331 20575 ft 455 kts 39°
2026-05-04 07:18 -29.40594 -50.47924 21047 ft 458 kts 39°
2026-05-04 07:18 -29.38219 -50.45539 21504 ft 461 kts 39°
2026-05-04 07:19 -29.35780 -50.43107 21964 ft 465 kts 39°
2026-05-04 07:19 -29.33326 -50.40673 22410 ft 468 kts 39°
2026-05-04 07:19 -29.30852 -50.38227 22884 ft 470 kts 39°
2026-05-04 07:19 -29.28368 -50.35779 23321 ft 473 kts 38°
2026-05-04 07:20 -29.25792 -50.33415 23718 ft 476 kts 36°
2026-05-04 07:20 -29.23126 -50.31121 24058 ft 479 kts 34°
2026-05-04 07:20 -29.20467 -50.28892 24393 ft 482 kts 34°
2026-05-04 07:20 -29.17752 -50.26629 24757 ft 484 kts 34°
2026-05-04 07:22 -28.98522 -50.10328 27134 ft 498 kts 34°
2026-05-04 07:22 -28.95706 -50.07937 27143 ft 505 kts 34°
2026-05-04 07:23 -28.92875 -50.05534 27138 ft 506 kts 34°
2026-05-04 07:23 -28.90056 -50.03142 27133 ft 503 kts 34°
2026-05-04 07:23 -28.87252 -50.00765 27122 ft 501 kts 34°
2026-05-04 07:23 -28.84492 -49.98427 27145 ft 500 kts 34°
2026-05-04 07:24 -28.81661 -49.96032 27139 ft 500 kts 34°
2026-05-04 07:24 -28.78899 -49.93696 27123 ft 498 kts 34°
2026-05-04 07:24 -28.76115 -49.91342 27153 ft 498 kts 34°
2026-05-04 07:24 -28.73318 -49.88980 27148 ft 500 kts 34°
2026-05-04 07:25 -28.70516 -49.86615 27131 ft 501 kts 34°
2026-05-04 07:26 -28.50880 -49.70033 27144 ft 505 kts 34°
2026-05-04 07:27 -28.48052 -49.67652 27143 ft 505 kts 34°
2026-05-04 07:27 -28.45224 -49.65274 27142 ft 506 kts 34°
2026-05-04 07:27 -28.42394 -49.62904 27143 ft 506 kts 34°
2026-05-04 07:27 -28.39559 -49.60533 27147 ft 506 kts 34°
2026-05-04 07:28 -28.36719 -49.58159 27143 ft 506 kts 34°
2026-05-04 07:28 -28.33882 -49.55789 27149 ft 506 kts 34°
2026-05-04 07:28 -28.31047 -49.53421 27145 ft 506 kts 34°
2026-05-04 07:28 -28.28245 -49.51081 27129 ft 505 kts 34°
2026-05-04 07:29 -28.25401 -49.48707 26344 ft 509 kts 34°
2026-05-04 07:29 -28.22551 -49.46331 25455 ft 506 kts 34°
2026-05-04 07:29 -28.19718 -49.43969 24683 ft 502 kts 34°
2026-05-04 07:29 -28.16922 -49.41639 23963 ft 496 kts 34°
2026-05-04 07:30 -28.14190 -49.39364 23164 ft 491 kts 34°
2026-05-04 07:30 -28.11447 -49.37082 22419 ft 485 kts 34°
2026-05-04 07:30 -28.08741 -49.34833 21686 ft 478 kts 34°
2026-05-04 07:30 -28.06072 -49.32629 21031 ft 470 kts 33°
2026-05-04 07:31 -28.03433 -49.30465 20355 ft 465 kts 33°
2026-05-04 07:31 -28.00824 -49.28333 19660 ft 460 kts 33°
2026-05-04 07:33 -27.83395 -49.14083 14804 ft 424 kts 34°
2026-05-04 07:33 -27.81072 -49.12040 14182 ft 420 kts 36°
2026-05-04 07:33 -27.78816 -49.09948 13410 ft 419 kts 37°
2026-05-04 07:33 -27.76584 -49.07855 12688 ft 415 kts 37°
2026-05-04 07:34 -27.74365 -49.05789 12021 ft 411 kts 37°
2026-05-04 07:34 -27.72190 -49.03785 11398 ft 406 kts 37°
2026-05-04 07:34 -27.70041 -49.01819 11235 ft 389 kts 37°
2026-05-04 07:34 -27.67976 -48.99934 11055 ft 374 kts 37°
2026-05-04 07:35 -27.66041 -48.98050 10881 ft 363 kts 46°
2026-05-04 07:35 -27.64771 -48.95647 10732 ft 354 kts 70°
2026-05-04 07:35 -27.64376 -48.93850 10646 ft 346 kts 82°
2026-05-04 07:35 -27.64370 -48.91222 10516 ft 334 kts 98°
2026-05-04 07:36 -27.64733 -48.88670 10367 ft 324 kts 101°
2026-05-04 07:36 -27.65129 -48.86197 10230 ft 315 kts 101°
2026-05-04 07:38 -27.69884 -48.70715 8206 ft 297 kts 123°
2026-05-04 07:38 -27.70964 -48.68732 7906 ft 296 kts 123°
2026-05-04 07:38 -27.72035 -48.66753 7498 ft 294 kts 122°
2026-05-04 07:38 -27.73087 -48.64804 7115 ft 289 kts 122°
2026-05-04 07:39 -27.74126 -48.62879 6783 ft 283 kts 122°
2026-05-04 07:39 -27.75137 -48.61007 6493 ft 275 kts 122°
2026-05-04 07:39 -27.76119 -48.59187 6201 ft 267 kts 121°
2026-05-04 07:39 -27.77069 -48.57425 5888 ft 256 kts 121°
2026-05-04 07:40 -27.77959 -48.55774 5629 ft 243 kts 120°
2026-05-04 07:40 -27.78814 -48.54188 5393 ft 230 kts 120°
2026-05-04 07:40 -27.79629 -48.52675 5160 ft 220 kts 119°
2026-05-04 07:40 -27.80407 -48.51231 4955 ft 210 kts 118°
2026-05-04 07:41 -27.81146 -48.49860 4757 ft 199 kts 118°
2026-05-04 07:41 -27.81854 -48.48542 4609 ft 197 kts 118°
2026-05-04 07:41 -27.82567 -48.47214 4423 ft 197 kts 117°
2026-05-04 07:41 -27.83276 -48.45896 4231 ft 195 kts 117°
2026-05-04 07:42 -27.83959 -48.44594 4076 ft 189 kts 110°
2026-05-04 07:42 -27.84102 -48.43226 3937 ft 168 kts 65°
2026-05-04 07:42 -27.83545 -48.42117 3836 ft 161 kts 38°
2026-05-04 07:42 -27.82629 -48.41412 3709 ft 160 kts 27°
2026-05-04 07:43 -27.81688 -48.40758 3548 ft 160 kts 27°
2026-05-04 07:43 -27.80747 -48.40109 3388 ft 156 kts 27°
2026-05-04 07:43 -27.79827 -48.39478 3222 ft 152 kts 27°
2026-05-04 07:43 -27.78926 -48.38863 3089 ft 151 kts 28°
2026-05-04 07:44 -27.78007 -48.38237 2963 ft 157 kts 28°
2026-05-04 07:44 -27.77047 -48.37690 2797 ft 157 kts
2026-05-04 07:44 -27.76012 -48.37964 2667 ft 154 kts 329°
2026-05-04 07:44 -27.75334 -48.38916 2530 ft 161 kts 306°
2026-05-04 07:45 -27.74741 -48.39999 2375 ft 163 kts 307°
2026-05-04 07:45 -27.74147 -48.41084 2214 ft 162 kts 306°
2026-05-04 07:45 -27.73561 -48.42162 2057 ft 160 kts 306°
2026-05-04 07:45 -27.72982 -48.43229 1896 ft 160 kts 306°
2026-05-04 07:46 -27.72401 -48.44300 1769 ft 159 kts 304°
2026-05-04 07:46 -27.71821 -48.45372 1560 ft 160 kts 304°
2026-05-04 07:46 -27.71255 -48.46424 1368 ft 152 kts 304°
2026-05-04 07:46 -27.70726 -48.47404 1208 ft 144 kts 303°
2026-05-04 07:47 -27.70211 -48.48361 1008 ft 141 kts 303°
2026-05-04 07:47 -27.69709 -48.49293 794 ft 142 kts 302°
2026-05-04 07:47 -27.69191 -48.50254 645 ft 144 kts 301°
2026-05-04 07:49 -27.67036 -48.54560 29 ft 9 kts 211°
2026-05-04 07:49 -27.67088 -48.54596 28 ft 9 kts 211°
2026-05-04 07:49 -27.67141 -48.54623 28 ft 8 kts 187°
2026-05-04 07:50 -27.67194 -48.54604 28 ft 8 kts 137°
2026-05-04 07:50 -27.67225 -48.54552 28 ft 8 kts 121°
2026-05-04 07:50 -27.67244 -48.54529 28 ft 3 kts 158°
2026-05-04 07:50 -27.67265 -48.54531 28 ft 3 kts 201°
2026-05-04 07:51 -27.67280 -48.54541 28 ft 0 kts 210°